GSAT-10 (38779 NORAD) Tracking and Keplerian Element Data

This shows tracking and keplerian element data for the satellite.

Feedback or suggestion? Click here.




ElementValue
Catalog38779
NameGSAT-10
Epoch Orbit2129
Epoch Day197.95082139
Epoch Year2018
RAAN60.2214
Inclination0.0118
Eccentricity0.0003181
Argument of Perigee21.6579
Mean Anonmoly278.1567
Mean Motion1.00270817
Decay Rate-1.85E-06
L11 38779U 12051B 18197.95082139 -.00000185 00000-0 00000+0 0 9990
L22 38779 0.0118 60.2214 0003181 21.6579 278.1567 1.00270817 21290

Live tracking and technical data element details for GSAT-10 (NORAD 38779). GSAT-10 can be tracked NOW for your location showing map with azimuth and elevation plus other details from your city location.

Track the satellite on the map from your city or location and see movement details for azimuth, elevation, latitude, longitude, range, height, and movement on the map or in text.







IsCatalogInMostPopularTable: catalog: 38779, numindb: 64
Update: records affected: 1



GetName: 38779 GSAT-10

Hit Count: updated at: Thu, 19 Jul 2018 21:29:18 GMT